Location: Newark
(13.6797°N, 8.5297°E)
Time: 05:53:12
(UTC+00:00)

Courier 1B - All Passes

Search period start: 27 January 2020 00:00
Search period end: 06 February 2020 00:00
Orbit: 962 x 1209 km, 28.3° (Epoch: 26 January)

Date Brightness Start Highest point End Pass type
(mag) Time Alt. Az. Time Alt. Az. Time Alt. Az.
27 Jan - 01:35:10 10° WNW 01:41:17 32° NNW 01:47:44 10° NE visible
27 Jan - 03:30:59 10° NW 03:36:52 25° N 03:42:59 10° NE visible
27 Jan - 05:25:29 10° NW 05:32:26 37° NNE 05:39:33 10° E visible
27 Jan - 07:19:29 10° WNW 07:27:19 83° NNE 07:35:12 10° ESE daylight
27 Jan - 09:14:45 10° W 09:21:40 34° SSW 09:28:28 10° SSE daylight
27 Jan - 20:53:42 10° SSW 20:58:48 24° SSE 21:04:02 10° E visible
27 Jan - 22:46:05 10° WSW 22:52:40 88° SSE 22:59:38 10° ENE night (unlit)
28 Jan - 00:40:58 10° W 00:47:11 37° NNW 00:53:45 10° NE night (unlit)
28 Jan - 02:36:52 10° NW 02:42:34 25° N 02:48:32 10° NE visible
28 Jan - 04:31:42 10° NW 04:38:12 31° NNE 04:44:57 10° ENE visible
28 Jan - 06:25:36 10° WNW 06:33:16 66° NNE 06:41:05 10° ESE daylight
28 Jan - 08:20:17 10° W 08:27:42 46° SSW 08:35:06 10° SE daylight
28 Jan - 10:18:53 10° SW 10:22:03 13° SSW 10:25:13 10° S daylight
28 Jan - 20:01:09 10° S 20:05:04 17° SSE 20:09:02 10° ESE visible
28 Jan - 21:52:30 10° SW 21:58:55 65° SSE 22:05:37 10° ENE night (unlit)
28 Jan - 23:46:52 10° W 23:53:10 45° NNW 23:59:51 10° NE night (unlit)
29 Jan - 01:42:42 10° WNW 01:48:19 26° N 01:54:14 10° NE visible
29 Jan - 03:37:52 10° NW 03:43:57 28° N 03:50:18 10° ENE visible
29 Jan - 05:31:49 10° NW 05:39:10 52° NNE 05:46:46 10° E visible
29 Jan - 07:26:04 10° WNW 07:33:44 62° SSW 07:41:28 10° SE daylight
29 Jan - 09:22:51 10° WSW 09:28:03 19° SSW 09:33:12 10° S daylight
29 Jan - 19:09:48 10° SSE 19:11:16 11° SSE 19:12:45 10° SE visible
29 Jan - 20:59:06 10° SW 21:05:13 46° SSE 21:11:30 10° ENE visible
29 Jan - 22:52:51 10° W 22:59:15 56° NNW 23:05:59 10° NE night (unlit)
30 Jan - 00:48:28 10° WNW 00:54:08 27° N 01:00:05 10° NE night (unlit)
30 Jan - 02:43:59 10° NW 02:49:41 25° N 02:55:40 10° ENE visible
30 Jan - 04:38:05 10° NW 04:45:03 42° NNE 04:52:18 10° E visible
30 Jan - 06:32:03 10° WNW 06:39:44 81° SSW 06:47:38 10° ESE daylight
30 Jan - 08:27:46 10° W 08:34:03 26° SSW 08:40:22 10° SSE daylight
30 Jan - 20:05:52 10° SSW 20:11:32 32° SSE 20:17:14 10° E visible
30 Jan - 21:58:58 10° WSW 22:05:26 74° NNW 22:12:09 10° ENE night (unlit)
30 Jan - 23:54:15 10° WNW 00:00:02 31° NNW 00:06:07 10° NE night (unlit)
31 Jan - 01:50:02 10° NW 01:55:27 24° N 02:01:08 10° NE visible
31 Jan - 03:44:24 10° NW 03:50:54 34° NNE 03:57:43 10° E visible
31 Jan - 05:38:10 10° WNW 05:45:43 79° NNE 05:53:35 10° ESE daylight
31 Jan - 07:33:08 10° W 07:40:05 36° SSW 07:47:08 10° SSE daylight
31 Jan - 19:12:54 10° SSW 19:17:50 23° SSE 19:22:43 10° E visible
31 Jan - 21:05:13 10° WSW 21:11:41 83° SSE 21:18:18 10° ENE visible
31 Jan - 23:00:04 10° W 23:06:02 37° NNW 23:12:14 10° NE night (unlit)
01 Feb - 00:55:58 10° NW 01:01:15 23° N 01:06:45 10° NE night (unlit)
01 Feb - 02:50:42 10° NW 02:56:44 29° NNE 03:03:05 10° ENE visible
01 Feb - 04:44:25 10° NW 04:51:42 62° NNE 04:59:22 10° ESE visible
01 Feb - 06:38:50 10° WNW 06:46:07 49° SSW 06:53:38 10° SE daylight
01 Feb - 08:36:43 10° WSW 08:40:32 14° SSW 08:44:23 10° S daylight
01 Feb - 18:20:21 10° S 18:24:04 16° SSE 18:27:43 10° ESE visible
01 Feb - 20:11:36 10° SW 20:17:59 60° SSE 20:24:23 10° ENE visible
01 Feb - 22:05:57 10° W 22:12:06 45° NNW 22:18:27 10° NE night (unlit)
02 Feb - 00:01:49 10° WNW 00:07:05 24° N 00:12:34 10° NE night (unlit)
02 Feb - 01:56:58 10° NW 02:02:34 26° N 02:08:26 10° ENE visible
02 Feb - 03:50:45 10° NW 03:57:40 48° NNE 04:04:59 10° E visible
02 Feb - 05:44:45 10° WNW 05:52:09 65° SSW 05:59:53 10° SE daylight
02 Feb - 07:41:07 10° WSW 07:46:30 20° SSW 07:51:58 10° SSE daylight
02 Feb - 17:29:25 10° SSE 17:30:13 10° SSE 17:31:00 10° SE daylight
02 Feb - 19:18:09 10° SW 19:24:17 43° SSE 19:30:21 10° E visible
02 Feb - 21:11:55 10° WSW 21:18:15 59° NNW 21:24:43 10° NE visible
02 Feb - 23:07:35 10° WNW 23:12:59 27° N 23:18:33 10° NE night (unlit)
03 Feb - 01:03:09 10° NW 01:08:23 23° N 01:13:51 10° NE night (unlit)
03 Feb - 02:57:08 10° NW 03:03:37 39° NNE 03:10:28 10° E visible
03 Feb - 04:50:52 10° WNW 04:58:12 85° SSW 05:05:57 10° ESE visible
03 Feb - 06:46:15 10° W 06:52:30 28° SSW 06:58:57 10° SSE daylight
03 Feb - 18:24:52 10° SSW 18:30:35 30° SSE 18:36:08 10° E visible
03 Feb - 20:17:59 10° WSW 20:24:29 78° NNW 20:30:59 10° ENE visible
03 Feb - 22:13:20 10° WNW 22:18:57 31° NNW 22:24:44 10° NE night (unlit)
04 Feb - 00:09:12 10° NW 00:14:13 22° N 00:19:25 10° NE night (unlit)
04 Feb - 02:03:32 10° NW 02:09:33 32° NNE 02:15:53 10° ENE visible
04 Feb - 03:57:07 10° WNW 04:04:15 75° NNE 04:11:51 10° ESE visible
04 Feb - 05:51:48 10° W 05:58:33 38° SSW 06:05:36 10° SE daylight
04 Feb - 17:31:50 10° SSW 17:36:49 22° SSE 17:41:39 10° ESE daylight
04 Feb - 19:24:11 10° WSW 19:30:46 78° SSE 19:37:13 10° ENE visible
04 Feb - 21:19:04 10° W 21:25:01 37° NNW 21:31:00 10° NE visible
04 Feb - 23:15:07 10° NW 23:20:05 22° N 23:25:11 10° NE night (unlit)
05 Feb - 01:09:54 10° NW 01:15:27 27° NNE 01:21:16 10° ENE night (unlit)
05 Feb - 03:03:28 10° NW 03:10:18 57° NNE 03:17:35 10° ESE visible
05 Feb - 04:57:39 10° WNW 05:04:37 51° SSW 05:12:00 10° SE visible
05 Feb - 06:55:01 10° WSW 06:59:01 15° SSW 07:03:05 10° S daylight
05 Feb - 16:39:13 10° S 16:42:59 15° SSE 16:46:39 10° ESE daylight
05 Feb - 18:30:30 10° SW 18:37:03 57° SSE 18:43:22 10° ENE visible
05 Feb - 20:24:53 10° W 20:31:08 47° NNW 20:37:20 10° NE visible
05 Feb - 22:20:53 10° WNW 22:25:59 24° N 22:31:10 10° NE night (unlit)
